Language: 


Des rapports , des résumés tant et plus, au choix de chacun....


Données statistiques de la station
Quotidien Rapport Janvier 18, 2017 Unités:  Métrique    Anglais   les deux
« Précédent Jour
Suivant Jour »
Quotidien Hebdomadaire Mensuel Annuel Actuel
  Haut: Bas: Moyen:
Température: 1.6 °C -4.0 °C -2 °C
Pt de rosée: -1.0 °C -4.7 °C -3 °C
Humidité: 98 % 0 % 93 %
Vitesse du vent: 15.1 km/h 0.0 km/h 8.6 km/h
Rafales: 18.3 km/h - -
Vent:- - ENE
Pression: 1038.1 hPa 0.0 hPa -
Précipitation: 0.0 mm    
Historical Graphs
 
 
Données statistiques pour Janvier 18, 2017
Heure Température Point de rosée Pression Vent Vitesse du vent Refales Humidité Pluie (taux horaire)
00:00 -2.4 °C -3.2 °C 1037.1 hPa NE 6.1 km/h 9.7 km/h 95 % 0.0 mm
00:05 -2.4 °C -3.2 °C 1037.1 hPa ENE 5.8 km/h 8.7 km/h 95 % 0.0 mm
00:11 -2.6 °C -3.4 °C 1037.1 hPa ENE 5.0 km/h 8.7 km/h 94 % 0.0 mm
00:16 -2.7 °C -3.5 °C 1037.1 hPa ENE 4.3 km/h 6.4 km/h 94 % 0.0 mm
00:21 -2.7 °C -3.6 °C 1037.1 hPa NE 5.0 km/h 6.4 km/h 94 % 0.0 mm
00:26 -2.7 °C -3.5 °C 1037.1 hPa NE 6.9 km/h 9.0 km/h 94 % 0.0 mm
00:31 -2.7 °C -3.3 °C 1037.1 hPa NE 6.4 km/h 9.0 km/h 95 % 0.0 mm
00:36 -2.7 °C -3.3 °C 1037.1 hPa NE 5.0 km/h 9.7 km/h 95 % 0.0 mm
00:41 -2.7 °C -3.4 °C 1037.1 hPa NE 5.8 km/h 9.7 km/h 95 % 0.0 mm
00:46 -2.7 °C -3.4 °C 1037.1 hPa North 6.4 km/h 10.5 km/h 95 % 0.0 mm
00:51 -2.7 °C -3.4 °C 1037.1 hPa North 10.1 km/h 10.5 km/h 95 % 0.0 mm
00:56 -2.7 °C -3.4 °C 1037.1 hPa North 10.1 km/h 11.6 km/h 95 % 0.0 mm
01:01 -2.7 °C -3.3 °C 1037.1 hPa NNE 10.1 km/h 11.6 km/h 96 % 0.0 mm
01:06 -2.7 °C -3.3 °C 1037.1 hPa NE 7.9 km/h 10.5 km/h 96 % 0.0 mm
01:11 -2.7 °C -3.3 °C 1037.1 hPa NE 6.1 km/h 10.1 km/h 96 % 0.0 mm
01:16 -2.8 °C -3.6 °C 1037.1 hPa NNE 6.1 km/h 9.0 km/h 95 % 0.0 mm
01:21 -2.8 °C -3.4 °C 1037.1 hPa NNE 6.9 km/h 9.3 km/h 96 % 0.0 mm
01:26 -2.8 °C -3.4 °C 1037.1 hPa NE 8.7 km/h 10.5 km/h 96 % 0.0 mm
01:31 -2.8 °C -3.4 °C 1037.1 hPa NE 8.7 km/h 10.5 km/h 96 % 0.0 mm
01:36 -2.8 °C -3.4 °C 1037.1 hPa NE 11.6 km/h 11.6 km/h 96 % 0.0 mm
01:41 -2.7 °C -3.3 °C 1036.1 hPa NE 9.3 km/h 11.9 km/h 96 % 0.0 mm
01:46 -2.7 °C -3.3 °C 1036.1 hPa NE 9.0 km/h 11.9 km/h 96 % 0.0 mm
01:51 -2.8 °C -3.4 °C 1036.1 hPa NE 10.5 km/h 11.6 km/h 96 % 0.0 mm
01:56 -2.7 °C -3.3 °C 1037.1 hPa NE 6.9 km/h 12.6 km/h 96 % 0.0 mm
02:02 0.0 °C -3.3 °C 0.0 hPa NE 10.5 km/h 12.6 km/h 0 % 0.0 mm
02:07 -2.7 °C -3.2 °C 1037.1 hPa ENE 6.9 km/h 11.9 km/h 96 % 0.0 mm
02:12 -2.7 °C -3.2 °C 1037.1 hPa ENE 8.7 km/h 11.1 km/h 96 % 0.0 mm
02:17 -2.7 °C -3.3 °C 1037.1 hPa NE 9.0 km/h 11.6 km/h 96 % 0.0 mm
02:22 -2.7 °C -3.3 °C 1037.1 hPa NNE 6.4 km/h 11.6 km/h 96 % 0.0 mm
02:27 -2.7 °C -3.3 °C 1037.1 hPa NE 7.2 km/h 10.1 km/h 96 % 0.0 mm
02:32 -2.8 °C -3.4 °C 1037.1 hPa North 6.9 km/h 9.7 km/h 96 % 0.0 mm
02:37 -2.8 °C -3.4 °C 1037.1 hPa NE 4.3 km/h 9.3 km/h 96 % 0.0 mm
02:42 -2.9 °C -3.5 °C 1037.1 hPa NE 5.8 km/h 9.3 km/h 96 % 0.0 mm
02:47 -2.9 °C -3.5 °C 1037.1 hPa NE 4.7 km/h 9.3 km/h 96 % 0.0 mm
02:52 -2.9 °C -3.5 °C 1036.1 hPa East 3.2 km/h 7.9 km/h 96 % 0.0 mm
02:57 -3.1 °C -3.7 °C 1036.1 hPa ENE 3.2 km/h 6.4 km/h 96 % 0.0 mm
03:02 -3.2 °C -3.8 °C 1036.1 hPa NE 4.3 km/h 5.0 km/h 96 % 0.0 mm
03:07 -3.4 °C -4.1 °C 1036.1 hPa Calm   5.0 km/h 95 % 0.0 mm
03:12 -3.6 °C -4.2 °C 1036.1 hPa NE 4.0 km/h 4.7 km/h 95 % 0.0 mm
03:17 -3.6 °C -4.3 °C 1036.1 hPa NE 3.5 km/h 4.7 km/h 95 % 0.0 mm
03:22 -3.7 °C -4.4 °C 1037.1 hPa East 2.1 km/h 4.7 km/h 95 % 0.0 mm
03:27 -3.8 °C -4.5 °C 1037.1 hPa ESE 2.1 km/h 4.0 km/h 95 % 0.0 mm
03:32 -3.8 °C -4.5 °C 1037.1 hPa Calm   4.0 km/h 95 % 0.0 mm
03:37 -4.0 °C -4.7 °C 1037.1 hPa Calm   1.4 km/h 95 % 0.0 mm
03:42 -4.0 °C -4.7 °C 1037.1 hPa Calm     95 % 0.0 mm
03:47 -4.0 °C -4.7 °C 1037.1 hPa NNE 4.3 km/h 4.7 km/h 95 % 0.0 mm
03:52 -4.0 °C -4.6 °C 1037.1 hPa NE 4.7 km/h 4.7 km/h 96 % 0.0 mm
03:57 -3.9 °C -4.4 °C 1037.1 hPa ENE 6.9 km/h 7.6 km/h 96 % 0.0 mm
04:02 -3.7 °C -4.3 °C 1037.1 hPa ENE 6.9 km/h 7.6 km/h 96 % 0.0 mm
04:07 -3.6 °C -4.1 °C 1037.1 hPa NE 6.4 km/h 7.6 km/h 97 % 0.0 mm
04:12 -3.6 °C -3.9 °C 1037.1 hPa NE 6.1 km/h 9.3 km/h 97 % 0.0 mm
04:17 -3.6 °C -3.9 °C 1037.1 hPa NE 6.1 km/h 9.3 km/h 97 % 0.0 mm
04:22 -3.6 °C -3.9 °C 1037.1 hPa NE 7.2 km/h 9.3 km/h 97 % 0.0 mm
04:27 -3.4 °C -3.8 °C 1037.1 hPa NE 6.4 km/h 9.3 km/h 97 % 0.0 mm
04:32 -3.6 °C -3.9 °C 1037.1 hPa North 10.1 km/h 10.1 km/h 97 % 0.0 mm
04:37 -3.6 °C -3.9 °C 1037.1 hPa NNE 7.2 km/h 10.1 km/h 97 % 0.0 mm
04:42 -3.4 °C -3.8 °C 1037.1 hPa NE 9.3 km/h 10.5 km/h 97 % 0.0 mm
04:47 -3.4 °C -3.8 °C 1037.1 hPa NE 12.2 km/h 12.6 km/h 97 % 0.0 mm
04:52 -3.4 °C -3.8 °C 1037.1 hPa NNE 10.1 km/h 12.6 km/h 97 % 0.0 mm
04:57 -3.3 °C -3.7 °C 1037.1 hPa NNE 7.9 km/h 12.2 km/h 97 % 0.0 mm
05:02 -3.4 °C -3.8 °C 1037.1 hPa NNE 9.3 km/h 11.9 km/h 97 % 0.0 mm
05:08 -3.4 °C -3.8 °C 1037.1 hPa NNE 6.4 km/h 11.9 km/h 97 % 0.0 mm
05:13 -3.4 °C -3.8 °C 1037.1 hPa NNE 9.0 km/h 9.7 km/h 97 % 0.0 mm
05:18 -3.4 °C -3.8 °C 1037.1 hPa NE 10.1 km/h 10.1 km/h 97 % 0.0 mm
05:23 -3.6 °C -3.9 °C 1037.1 hPa NE 6.4 km/h 10.1 km/h 97 % 0.0 mm
05:28 -3.6 °C -3.9 °C 1037.1 hPa NE 7.9 km/h 10.1 km/h 97 % 0.0 mm
05:33 -3.6 °C -3.9 °C 1037.1 hPa NE 10.1 km/h 10.5 km/h 97 % 0.0 mm
05:38 -3.6 °C -3.9 °C 1037.1 hPa NE 6.4 km/h 10.5 km/h 97 % 0.0 mm
05:43 -3.6 °C -3.9 °C 1037.1 hPa NE 8.7 km/h 9.0 km/h 97 % 0.0 mm
05:48 -3.6 °C -4.1 °C 1037.1 hPa NE 5.8 km/h 9.0 km/h 97 % 0.0 mm
05:53 -3.6 °C -4.1 °C 1037.1 hPa NNE 7.6 km/h 9.0 km/h 97 % 0.0 mm
05:58 -3.6 °C -3.9 °C 1037.1 hPa NNE 6.4 km/h 10.5 km/h 97 % 0.0 mm
06:03 -3.6 °C -4.1 °C 1037.1 hPa NE 6.9 km/h 10.5 km/h 97 % 0.0 mm
06:08 -3.6 °C -4.1 °C 1037.1 hPa NE 7.6 km/h 9.0 km/h 97 % 0.0 mm
06:13 -3.6 °C -4.1 °C 1037.1 hPa NNE 8.7 km/h 9.7 km/h 97 % 0.0 mm
06:18 -3.6 °C -4.1 °C 1037.1 hPa NE 5.5 km/h 9.7 km/h 97 % 0.0 mm
06:23 -3.6 °C -4.1 °C 1037.1 hPa NNE 7.6 km/h 9.3 km/h 97 % 0.0 mm
06:28 -3.6 °C -4.1 °C 1037.1 hPa NE 7.9 km/h 9.3 km/h 97 % 0.0 mm
06:33 -3.6 °C -4.1 °C 1037.1 hPa NE 5.5 km/h 9.3 km/h 97 % 0.0 mm
06:38 -3.6 °C -3.9 °C 1037.1 hPa NE 9.0 km/h 9.7 km/h 98 % 0.0 mm
06:43 -3.6 °C -3.9 °C 1037.1 hPa NE 9.0 km/h 10.1 km/h 98 % 0.0 mm
06:48 -3.6 °C -3.9 °C 1037.1 hPa NE 4.7 km/h 10.1 km/h 98 % 0.0 mm
06:53 -3.6 °C -3.9 °C 1037.1 hPa NNE 8.7 km/h 10.5 km/h 98 % 0.0 mm
06:58 -3.6 °C -3.9 °C 1037.1 hPa NNE 6.9 km/h 12.6 km/h 98 % 0.0 mm
07:03 -3.6 °C -3.9 °C 1037.1 hPa NE 6.9 km/h 12.6 km/h 98 % 0.0 mm
07:08 -3.6 °C -3.9 °C 1037.1 hPa NE 6.1 km/h 10.1 km/h 98 % 0.0 mm
07:13 -3.6 °C -3.9 °C 1037.1 hPa NE 10.1 km/h 11.9 km/h 98 % 0.0 mm
07:18 -3.7 °C -4.0 °C 1037.1 hPa NE 6.1 km/h 11.9 km/h 98 % 0.0 mm
07:23 -3.7 °C -4.0 °C 1037.1 hPa NE 8.7 km/h 10.8 km/h 98 % 0.0 mm
07:28 -3.7 °C -4.0 °C 1037.1 hPa NE 9.7 km/h 11.6 km/h 98 % 0.0 mm
07:33 -3.7 °C -4.0 °C 1037.1 hPa NE 9.0 km/h 11.6 km/h 98 % 0.0 mm
07:38 -3.7 °C -4.0 °C 1037.1 hPa NNE 8.7 km/h 10.5 km/h 98 % 0.0 mm
07:43 -3.8 °C -4.1 °C 1037.1 hPa NE 7.2 km/h 10.5 km/h 98 % 0.0 mm
07:48 -3.8 °C -4.2 °C 1037.1 hPa NE 8.7 km/h 10.1 km/h 97 % 0.0 mm
07:53 -3.8 °C -4.1 °C 1037.1 hPa ENE 7.9 km/h 11.9 km/h 98 % 0.0 mm
07:58 -3.8 °C -4.1 °C 1037.1 hPa ENE 9.7 km/h 11.9 km/h 98 % 0.0 mm
08:03 -3.8 °C -4.1 °C 1037.1 hPa NE 8.7 km/h 10.1 km/h 98 % 0.0 mm
08:08 -3.8 °C -4.1 °C 1037.1 hPa ENE 8.7 km/h 10.1 km/h 98 % 0.0 mm
08:13 -3.8 °C -4.1 °C 1037.1 hPa North 9.0 km/h 10.1 km/h 98 % 0.0 mm
08:18 -3.9 °C -4.2 °C 1037.1 hPa NNE 8.7 km/h 10.1 km/h 98 % 0.0 mm
08:23 -3.9 °C -4.2 °C 1037.1 hPa NNE 9.0 km/h 9.7 km/h 98 % 0.0 mm
08:28 -3.9 °C -4.2 °C 1037.1 hPa NE 6.1 km/h 9.7 km/h 98 % 0.0 mm
08:33 -3.9 °C -4.2 °C 1037.1 hPa NNE 11.1 km/h 13.0 km/h 98 % 0.0 mm
08:38 -3.9 °C -4.2 °C 1037.1 hPa NE 10.1 km/h 13.7 km/h 98 % 0.0 mm
08:43 -3.9 °C -4.2 °C 1037.1 hPa NE 10.5 km/h 13.7 km/h 98 % 0.0 mm
08:48 -3.9 °C -4.2 °C 1037.1 hPa NE 9.3 km/h 12.6 km/h 98 % 0.0 mm
08:53 -3.9 °C -4.2 °C 1037.1 hPa NE 14.0 km/h 14.0 km/h 98 % 0.0 mm
08:58 -3.9 °C -4.2 °C 1037.1 hPa East 7.9 km/h 14.0 km/h 98 % 0.0 mm
09:03 -3.9 °C -4.2 °C 1037.1 hPa East 9.0 km/h 12.2 km/h 98 % 0.0 mm
09:08 -3.8 °C -4.1 °C 1037.1 hPa ENE 9.3 km/h 15.4 km/h 98 % 0.0 mm
09:13 -3.8 °C -4.1 °C 1037.1 hPa ENE 9.3 km/h 15.4 km/h 98 % 0.0 mm
09:18 -3.7 °C -4.0 °C 1037.1 hPa ENE 10.5 km/h 12.6 km/h 98 % 0.0 mm
09:23 -3.7 °C -4.0 °C 1037.1 hPa NE 7.2 km/h 13.7 km/h 98 % 0.0 mm
09:28 -3.6 °C -3.9 °C 1037.1 hPa NE 9.7 km/h 13.7 km/h 98 % 0.0 mm
09:33 -3.6 °C -3.9 °C 1037.1 hPa NE 9.0 km/h 12.2 km/h 98 % 0.0 mm
09:38 -3.6 °C -3.9 °C 1037.1 hPa NE 9.3 km/h 11.6 km/h 98 % 0.0 mm
09:43 -3.6 °C -3.9 °C 1037.1 hPa NNE 9.0 km/h 12.6 km/h 98 % 0.0 mm
09:48 -3.6 °C -3.9 °C 1037.1 hPa ENE 8.7 km/h 12.6 km/h 98 % 0.0 mm
09:53 -3.6 °C -3.9 °C 1038.1 hPa ENE 9.0 km/h 13.0 km/h 98 % 0.0 mm
09:58 -3.6 °C -3.8 °C 1038.1 hPa NE 14.0 km/h 14.0 km/h 98 % 0.0 mm
10:03 -3.4 °C -3.7 °C 1038.1 hPa NE 12.2 km/h 14.0 km/h 98 % 0.0 mm
10:08 -3.2 °C -3.5 °C 1038.1 hPa ENE 9.0 km/h 13.7 km/h 98 % 0.0 mm
10:13 -3.3 °C -3.6 °C 1038.1 hPa ENE 6.9 km/h 13.0 km/h 98 % 0.0 mm
10:18 -3.2 °C -3.5 °C 1038.1 hPa NNE 10.1 km/h 13.0 km/h 98 % 0.0 mm
10:23 -3.2 °C -3.5 °C 1038.1 hPa NE 9.0 km/h 14.0 km/h 98 % 0.0 mm
10:28 -3.2 °C -3.5 °C 1038.1 hPa ENE 13.7 km/h 15.8 km/h 98 % 0.0 mm
10:33 -3.1 °C -3.4 °C 1038.1 hPa ENE 9.0 km/h 15.8 km/h 98 % 0.0 mm
10:38 -3.1 °C -3.3 °C 1038.1 hPa NNE 14.3 km/h 16.3 km/h 98 % 0.0 mm
10:43 -2.9 °C -3.2 °C 1038.1 hPa NNE 9.7 km/h 16.3 km/h 98 % 0.0 mm
10:48 -2.8 °C -3.1 °C 1038.1 hPa ENE 6.4 km/h 13.7 km/h 98 % 0.0 mm
10:53 -2.7 °C -3.0 °C 1038.1 hPa NNE 11.9 km/h 13.7 km/h 98 % 0.0 mm
10:58 -2.6 °C -2.8 °C 1038.1 hPa NE 9.3 km/h 13.7 km/h 98 % 0.0 mm
11:03 -2.3 °C -2.6 °C 1038.1 hPa ENE 11.6 km/h 13.0 km/h 98 % 0.0 mm
11:08 -2.2 °C -2.4 °C 1037.1 hPa ENE 9.3 km/h 13.7 km/h 98 % 0.0 mm
11:13 -2.1 °C -2.3 °C 1037.1 hPa NE 10.5 km/h 14.0 km/h 98 % 0.0 mm
11:18 -1.9 °C -2.3 °C 1037.1 hPa NE 9.7 km/h 14.3 km/h 97 % 0.0 mm
11:23 -1.7 °C -2.1 °C 1037.1 hPa NE 12.2 km/h 14.3 km/h 97 % 0.0 mm
11:28 -1.7 °C -2.1 °C 1037.1 hPa ENE 12.2 km/h 13.7 km/h 97 % 0.0 mm
11:33 -1.4 °C -1.9 °C 1037.1 hPa NE 11.9 km/h 14.3 km/h 97 % 0.0 mm
11:38 -1.4 °C -1.8 °C 1037.1 hPa NE 11.9 km/h 14.3 km/h 97 % 0.0 mm
11:43 -1.3 °C -1.7 °C 1037.1 hPa ENE 11.9 km/h 13.7 km/h 97 % 0.0 mm
11:48 -1.2 °C -1.7 °C 1037.1 hPa ENE 10.1 km/h 13.7 km/h 96 % 0.0 mm
11:53 -1.1 °C -1.6 °C 1037.1 hPa ENE 10.1 km/h 13.0 km/h 96 % 0.0 mm
11:58 -1.0 °C -1.6 °C 1037.1 hPa NE 6.9 km/h 13.7 km/h 96 % 0.0 mm
12:03 -0.9 °C -1.6 °C 1037.1 hPa ENE 8.7 km/h 13.7 km/h 95 % 0.0 mm
12:08 -0.8 °C -1.5 °C 1037.1 hPa NE 9.0 km/h 13.0 km/h 95 % 0.0 mm
12:13 -0.7 °C -1.6 °C 1037.1 hPa ENE 11.6 km/h 13.0 km/h 94 % 0.0 mm
12:18 -0.5 °C -1.3 °C 1037.1 hPa East 6.1 km/h 13.7 km/h 94 % 0.0 mm
12:23 -0.4 °C -1.2 °C 1036.1 hPa ENE 10.5 km/h 13.7 km/h 94 % 0.0 mm
12:28 -0.4 °C -1.4 °C 1036.1 hPa ENE 10.8 km/h 14.0 km/h 93 % 0.0 mm
12:33 -0.3 °C -1.3 °C 1036.1 hPa ENE 10.5 km/h 14.0 km/h 93 % 0.0 mm
12:38 -0.1 °C -1.2 °C 1037.1 hPa NE 11.1 km/h 13.7 km/h 92 % 0.0 mm
12:43 0.1 °C -1.1 °C 1037.1 hPa NE 7.9 km/h 13.0 km/h 92 % 0.0 mm
12:48 0.1 °C -1.1 °C 1037.1 hPa ENE 8.7 km/h 13.0 km/h 92 % 0.0 mm
12:54 0.2 °C -1.1 °C 1036.1 hPa ENE 7.9 km/h 12.6 km/h 91 % 0.0 mm
12:59 0.3 °C -1.0 °C 1036.1 hPa ENE 9.3 km/h 12.6 km/h 91 % 0.0 mm
13:04 0.4 °C -1.1 °C 1036.1 hPa ENE 13.0 km/h 13.0 km/h 90 % 0.0 mm
13:09 0.4 °C -1.2 °C 1036.1 hPa ENE 9.0 km/h 14.0 km/h 89 % 0.0 mm
13:14 0.5 °C -1.1 °C 1036.1 hPa ENE 9.3 km/h 14.0 km/h 89 % 0.0 mm
13:19 0.6 °C -1.2 °C 1036.1 hPa ENE 8.7 km/h 13.0 km/h 88 % 0.0 mm
13:24 0.7 °C -1.1 °C 1037.1 hPa ENE 9.3 km/h 13.0 km/h 88 % 0.0 mm
13:29 0.8 °C -1.1 °C 1037.1 hPa ENE 7.9 km/h 13.0 km/h 87 % 0.0 mm
13:34 0.8 °C -1.3 °C 1037.1 hPa East 5.0 km/h 12.2 km/h 86 % 0.0 mm
13:39 0.8 °C -1.3 °C 1037.1 hPa East 9.3 km/h 14.0 km/h 86 % 0.0 mm
13:44 0.8 °C -1.4 °C 1037.1 hPa ENE 11.9 km/h 14.8 km/h 85 % 0.0 mm
13:49 0.8 °C -1.4 °C 1037.1 hPa ENE 10.1 km/h 15.1 km/h 85 % 0.0 mm
13:54 0.9 °C -1.5 °C 1037.1 hPa East 5.8 km/h 15.1 km/h 84 % 0.0 mm
13:59 1.0 °C -1.6 °C 1037.1 hPa East 8.7 km/h 14.3 km/h 83 % 0.0 mm
14:04 1.1 °C -1.5 °C 1037.1 hPa NE 7.9 km/h 11.6 km/h 83 % 0.0 mm
14:09 1.1 °C -1.5 °C 1037.1 hPa NNE 9.0 km/h 12.2 km/h 83 % 0.0 mm
14:14 1.2 °C -1.4 °C 1037.1 hPa ENE 6.9 km/h 12.2 km/h 83 % 0.0 mm
14:19 1.2 °C -1.4 °C 1037.1 hPa NE 9.7 km/h 11.1 km/h 83 % 0.0 mm
14:24 1.2 °C -1.6 °C 1037.1 hPa ENE 12.2 km/h 12.6 km/h 82 % 0.0 mm
14:29 1.3 °C -1.4 °C 1037.1 hPa NNE 6.1 km/h 12.6 km/h 82 % 0.0 mm
14:34 1.3 °C -1.4 °C 1037.1 hPa NNE 12.2 km/h 14.3 km/h 82 % 0.0 mm
14:39 1.3 °C -1.8 °C 1037.1 hPa NE 11.9 km/h 15.8 km/h 80 % 0.0 mm
14:44 1.1 °C -2.2 °C 1037.1 hPa NE 10.5 km/h 15.8 km/h 79 % 0.0 mm
14:49 1.2 °C -2.1 °C 1037.1 hPa NE 10.5 km/h 14.0 km/h 79 % 0.0 mm
14:54 1.3 °C -1.9 °C 1037.1 hPa NNE 12.6 km/h 15.1 km/h 79 % 0.0 mm
14:59 1.3 °C -1.9 °C 1037.1 hPa NE 13.7 km/h 15.1 km/h 79 % 0.0 mm
15:04 1.6 °C -1.8 °C 1037.1 hPa NE 12.2 km/h 17.2 km/h 78 % 0.0 mm
15:09 1.4 °C -1.9 °C 1037.1 hPa NE 12.6 km/h 17.2 km/h 78 % 0.0 mm
15:14 1.3 °C -2.3 °C 1037.1 hPa NE 10.8 km/h 17.7 km/h 77 % 0.0 mm
15:19 1.1 °C -2.3 °C 1037.1 hPa NE 10.1 km/h 17.7 km/h 78 % 0.0 mm
15:24 1.1 °C -2.3 °C 1037.1 hPa NNE 7.9 km/h 15.1 km/h 78 % 0.0 mm
15:29 1.0 °C -2.4 °C 1037.1 hPa North 10.5 km/h 15.1 km/h 78 % 0.0 mm
15:34 0.9 °C -2.3 °C 1037.1 hPa NNE 15.1 km/h 15.1 km/h 79 % 0.0 mm
15:39 0.9 °C -2.2 °C 1037.1 hPa NE 12.6 km/h 16.9 km/h 80 % 0.0 mm
15:44 0.9 °C -2.2 °C 1037.1 hPa NE 14.0 km/h 17.7 km/h 80 % 0.0 mm
15:49 0.9 °C -2.2 °C 1037.1 hPa NNE 12.6 km/h 17.7 km/h 80 % 0.0 mm
15:54 0.9 °C -2.2 °C 1037.1 hPa ENE 9.3 km/h 17.2 km/h 80 % 0.0 mm
15:59 0.9 °C -2.3 °C 1037.1 hPa NNE 9.3 km/h 17.2 km/h 79 % 0.0 mm
16:04 0.9 °C -2.3 °C 1037.1 hPa NE 14.0 km/h 17.7 km/h 79 % 0.0 mm
16:09 0.8 °C -2.4 °C 1037.1 hPa NNE 11.9 km/h 17.7 km/h 79 % 0.0 mm
16:14 0.7 °C -2.6 °C 1037.1 hPa NNE 13.0 km/h 16.9 km/h 79 % 0.0 mm
16:19 0.6 °C -2.4 °C 1037.1 hPa NE 13.0 km/h 16.6 km/h 80 % 0.0 mm
16:25 0.4 °C -2.8 °C 1037.1 hPa NE 12.6 km/h 18.3 km/h 79 % 0.0 mm
16:30 0.3 °C -2.9 °C 1037.1 hPa NE 8.7 km/h 18.3 km/h 79 % 0.0 mm
16:35 0.3 °C -2.8 °C 1037.1 hPa NE 12.2 km/h 17.7 km/h 80 % 0.0 mm
16:41 0.2 °C -2.8 °C 1037.1 hPa NE 10.1 km/h 16.9 km/h 80 % 0.0 mm
16:46 0.1 °C -2.8 °C 1037.1 hPa NNE 11.9 km/h 16.9 km/h 81 % 0.0 mm
16:51 0.0 °C -2.7 °C 1037.1 hPa NNE 12.2 km/h 14.3 km/h 82 % 0.0 mm
16:56 -0.1 °C -2.8 °C 1037.1 hPa NNE 10.5 km/h 17.2 km/h 82 % 0.0 mm
17:02 -0.2 °C -2.9 °C 1037.1 hPa NNE 14.0 km/h 17.2 km/h 82 % 0.0 mm
17:07 -0.3 °C -3.0 °C 1037.1 hPa NE 10.5 km/h 16.3 km/h 82 % 0.0 mm
17:17 -0.5 °C -3.0 °C 1037.1 hPa NE 10.1 km/h 12.2 km/h 83 % 0.0 mm
17:22 -0.5 °C -2.9 °C 1037.1 hPa NNE 11.9 km/h 12.2 km/h 84 % 0.0 mm
17:27 -0.6 °C -2.8 °C 1037.1 hPa NE 12.6 km/h 13.0 km/h 85 % 0.0 mm
17:32 -0.6 °C -2.8 °C 1037.1 hPa NNE 10.1 km/h 13.7 km/h 85 % 0.0 mm
17:37 -0.7 °C -2.7 °C 1037.1 hPa NE 9.3 km/h 13.7 km/h 86 % 0.0 mm
17:42 -0.8 °C -2.8 °C 1037.1 hPa NNE 12.6 km/h 13.7 km/h 86 % 0.0 mm
17:52 -0.9 °C -2.8 °C 1037.1 hPa NE 13.0 km/h 13.0 km/h 87 % 0.0 mm
17:57 -1.0 °C -2.7 °C 1037.1 hPa NNE 11.9 km/h 13.0 km/h 88 % 0.0 mm
18:02 -1.0 °C -2.7 °C 1037.1 hPa NE 9.0 km/h 11.9 km/h 88 % 0.0 mm
18:07 -1.0 °C -2.7 °C 1037.1 hPa NE 6.4 km/h 10.5 km/h 88 % 0.0 mm
18:12 -1.1 °C -2.8 °C 1037.1 hPa NE 11.6 km/h 12.2 km/h 88 % 0.0 mm
18:17 -1.1 °C -2.7 °C 1037.1 hPa NE 7.9 km/h 12.2 km/h 89 % 0.0 mm
18:22 -1.1 °C -2.7 °C 1037.1 hPa NE 8.7 km/h 10.5 km/h 89 % 0.0 mm
18:28 -1.2 °C -2.8 °C 1037.1 hPa NNE 9.0 km/h 14.0 km/h 89 % 0.0 mm
18:33 -1.2 °C -2.6 °C 1037.1 hPa NE 12.2 km/h 14.0 km/h 90 % 0.0 mm
18:38 -1.3 °C -2.7 °C 1036.1 hPa NNE 10.1 km/h 13.7 km/h 90 % 0.0 mm
18:43 -1.3 °C -2.7 °C 1036.1 hPa NE 9.7 km/h 13.7 km/h 90 % 0.0 mm
18:48 -1.3 °C -2.7 °C 1036.1 hPa NE 9.3 km/h 13.0 km/h 90 % 0.0 mm
18:53 -1.4 °C -2.8 °C 1036.1 hPa NE 7.9 km/h 13.0 km/h 90 % 0.0 mm
18:58 -1.4 °C -2.8 °C 1036.1 hPa NNE 10.5 km/h 10.5 km/h 90 % 0.0 mm
19:03 -1.4 °C -2.7 °C 1036.1 hPa NE 8.7 km/h 10.5 km/h 91 % 0.0 mm
19:08 -1.4 °C -2.7 °C 1036.1 hPa NE 10.1 km/h 10.5 km/h 91 % 0.0 mm
19:13 -1.4 °C -2.7 °C 1036.1 hPa NE 7.9 km/h 12.6 km/h 91 % 0.0 mm
19:18 -1.4 °C -2.7 °C 1036.1 hPa NNE 6.4 km/h 12.6 km/h 91 % 0.0 mm
19:23 -1.4 °C -2.7 °C 1036.1 hPa NNE 10.1 km/h 12.6 km/h 91 % 0.0 mm
19:28 -1.4 °C -2.6 °C 1036.1 hPa NNE 9.3 km/h 12.6 km/h 92 % 0.0 mm
19:33 -1.6 °C -2.7 °C 1036.1 hPa NNE 7.9 km/h 10.5 km/h 92 % 0.0 mm
19:38 -1.6 °C -2.7 °C 1036.1 hPa NNE 7.6 km/h 10.5 km/h 92 % 0.0 mm
19:43 -1.6 °C -2.7 °C 1036.1 hPa NNE 10.8 km/h 11.6 km/h 92 % 0.0 mm
19:48 -1.7 °C -2.8 °C 1036.1 hPa NNE 10.5 km/h 12.6 km/h 92 % 0.0 mm
19:53 -1.7 °C -2.7 °C 1036.1 hPa NNE 10.1 km/h 12.6 km/h 93 % 0.0 mm
19:58 -1.7 °C -2.7 °C 1036.1 hPa NE 12.6 km/h 14.0 km/h 93 % 0.0 mm
20:03 -1.8 °C -2.7 °C 1036.1 hPa NNE 7.6 km/h 14.0 km/h 93 % 0.0 mm
20:08 -1.8 °C -2.7 °C 1036.1 hPa NE 8.7 km/h 12.6 km/h 93 % 0.0 mm
20:13 -1.8 °C -2.7 °C 1036.1 hPa NE 6.4 km/h 12.6 km/h 93 % 0.0 mm
20:18 -1.9 °C -2.8 °C 1036.1 hPa NNE 6.4 km/h 10.5 km/h 93 % 0.0 mm
20:23 -1.9 °C -2.8 °C 1036.1 hPa NE 9.0 km/h 11.6 km/h 93 % 0.0 mm
20:28 -1.9 °C -2.8 °C 1036.1 hPa NE 9.3 km/h 11.6 km/h 93 % 0.0 mm
20:33 -1.9 °C -2.7 °C 1036.1 hPa NE 9.7 km/h 12.6 km/h 94 % 0.0 mm
20:38 -1.9 °C -2.7 °C 1037.1 hPa ENE 9.7 km/h 12.6 km/h 94 % 0.0 mm
20:43 -1.9 °C -2.8 °C 1037.1 hPa NNE 9.7 km/h 10.5 km/h 94 % 0.0 mm
20:48 -1.9 °C -2.8 °C 1037.1 hPa NE 7.9 km/h 9.7 km/h 94 % 0.0 mm
20:53 -1.9 °C -2.8 °C 1036.1 hPa NE 7.6 km/h 10.1 km/h 94 % 0.0 mm
20:58 -1.9 °C -2.8 °C 1036.1 hPa North 4.7 km/h 10.1 km/h 94 % 0.0 mm
21:03 -1.9 °C -2.8 °C 1036.1 hPa NNE 7.9 km/h 9.3 km/h 94 % 0.0 mm
21:08 -2.1 °C -2.9 °C 1036.1 hPa NE 5.0 km/h 10.1 km/h 94 % 0.0 mm
21:13 -2.2 °C -3.0 °C 1036.1 hPa NNE 6.1 km/h 10.1 km/h 94 % 0.0 mm
21:18 -2.2 °C -3.0 °C 1036.1 hPa NNE 8.7 km/h 9.7 km/h 94 % 0.0 mm
21:23 -2.3 °C -3.1 °C 1036.1 hPa NE 7.2 km/h 10.5 km/h 94 % 0.0 mm
21:28 -2.3 °C -3.1 °C 1036.1 hPa North 4.7 km/h 10.5 km/h 94 % 0.0 mm
21:33 -2.3 °C -3.1 °C 1036.1 hPa NE 7.6 km/h 9.3 km/h 94 % 0.0 mm
21:38 -2.3 °C -2.9 °C 1036.1 hPa NE 9.0 km/h 10.1 km/h 95 % 0.0 mm
21:43 -2.3 °C -2.9 °C 1036.1 hPa NNE 6.9 km/h 12.2 km/h 95 % 0.0 mm
21:48 -2.3 °C -2.9 °C 1036.1 hPa NNE 7.9 km/h 12.2 km/h 95 % 0.0 mm
21:53 -2.3 °C -2.9 °C 1036.1 hPa NNE 8.7 km/h 12.6 km/h 95 % 0.0 mm
21:58 -2.3 °C -2.9 °C 1036.1 hPa NE 10.5 km/h 12.6 km/h 95 % 0.0 mm
22:03 -2.3 °C -2.9 °C 1036.1 hPa NNE 9.0 km/h 12.6 km/h 95 % 0.0 mm
22:08 -2.3 °C -2.9 °C 1036.1 hPa NE 7.9 km/h 12.6 km/h 95 % 0.0 mm
22:13 -2.3 °C -2.8 °C 1036.1 hPa NE 6.1 km/h 12.2 km/h 96 % 0.0 mm
22:18 -2.3 °C -2.8 °C 1036.1 hPa NE 7.9 km/h 11.6 km/h 96 % 0.0 mm
22:23 -2.3 °C -2.8 °C 1036.1 hPa NE 10.5 km/h 12.6 km/h 96 % 0.0 mm
22:28 -2.2 °C -2.7 °C 1036.1 hPa ENE 6.4 km/h 12.6 km/h 96 % 0.0 mm
22:33 -2.3 °C -2.8 °C 1036.1 hPa NNE 6.1 km/h 10.5 km/h 96 % 0.0 mm
22:38 -2.2 °C -2.7 °C 1036.1 hPa NE 7.9 km/h 9.3 km/h 96 % 0.0 mm
22:43 -2.2 °C -2.7 °C 1036.1 hPa NE 5.5 km/h 9.3 km/h 96 % 0.0 mm
22:48 -2.2 °C -2.7 °C 1036.1 hPa ENE 6.1 km/h 7.9 km/h 96 % 0.0 mm
22:53 -2.2 °C -2.7 °C 1036.1 hPa NE 8.7 km/h 8.7 km/h 96 % 0.0 mm
22:58 -2.2 °C -2.7 °C 1036.1 hPa NE 6.4 km/h 8.7 km/h 96 % 0.0 mm
23:03 -2.2 °C -2.7 °C 1036.1 hPa NE 6.4 km/h 10.1 km/h 96 % 0.0 mm
23:08 -2.2 °C -2.7 °C 1036.1 hPa ENE 6.9 km/h 10.8 km/h 96 % 0.0 mm
23:13 -2.2 °C -2.7 °C 1036.1 hPa NE 7.9 km/h 10.8 km/h 96 % 0.0 mm
23:18 -2.2 °C -2.7 °C 1036.1 hPa NE 9.0 km/h 9.7 km/h 96 % 0.0 mm
23:23 -2.3 °C -2.9 °C 1036.1 hPa NE 7.9 km/h 9.7 km/h 95 % 0.0 mm
23:28 -2.3 °C -2.9 °C 1036.1 hPa NE 5.8 km/h 9.3 km/h 95 % 0.0 mm
23:33 -2.3 °C -3.1 °C 1036.1 hPa NE 6.4 km/h 9.3 km/h 95 % 0.0 mm
23:38 -2.3 °C -3.1 °C 1036.1 hPa NE 6.4 km/h 9.0 km/h 95 % 0.0 mm
23:43 -2.3 °C -3.1 °C 1036.1 hPa ENE 6.9 km/h 9.0 km/h 95 % 0.0 mm
23:48 -2.4 °C -3.2 °C 1036.1 hPa NE 6.4 km/h 9.0 km/h 95 % 0.0 mm
23:53 -2.4 °C -3.2 °C 1036.1 hPa NE 6.4 km/h 7.9 km/h 95 % 0.0 mm
23:58 -2.4 °C -3.2 °C 1036.1 hPa NE 6.9 km/h 7.6 km/h 95 % 0.0 mm
Le Gheer Warneton
Courtoisie de Weather Underground - 2.5 mb

Mise a jour : 17-12-17 07:11:12
Généré par Cumulus 1.9.4 (1099)